CAPE
366 788 872 989 1018 942 936 955 1060 1153 1243 1353 1296 1291 1267 1146 1058 1231 1213 1343 1153 875 849 824 738 655 572 529 457 390 317 264 350 434 675 910 786 722 1119 1326 1624 895 1573
465 854 797 1056 1017 987 1030 1089 1205 1302 1402 1203 1178 1183 1233 1242 1224 1128 1108 1067 944 811 749 692 526 392 277 202 157 139 148 121 127 155 415 652 1024 779 825 1214 1597 1195 1636
496 889 964 913 978 1098 1181 1251 1356 1388 1117 960 913 993 971 890 903 952 960 1039 700 678 518 309 137 111 112 126 76 29 15 0 9 114 396 782 1136 1032 791 1283 1479 1398 1288
596 828 1048 811 1033 1303 1309 1312 1371 1285 1104 1088 855 739 737 725 723 761 969 902 627 495 227 125 130 121 63 9 0 0 0 0 0 79 400 674 760 1165 1003 960 1162 989 955
842 1006 1204 932 1145 1420 1381 1426 1379 1286 1187 1103 994 840 858 839 909 1017 883 931 405 186 85 45 17 2 0 0 0 0 0 0 0 55 367 937 1021 1040 1146 858 913 990 915
997 1159 853 1005 1182 1312 1524 1426 1345 1199 1064 1033 1130 993 827 591 496 606 635 564 219 57 17 0 0 0 0 0 0 0 0 0 0 0 142 617 1028 983 960 956 814 742 1096
1005 1262 1433 1008 1205 1397 1533 1361 1210 1054 1010 1115 1205 976 609 434 396 430 416 298 80 21 0 0 0 0 0 0 0 0 0 0 0 0 0 238 636 733 702 654 553 459 384
971 1025 1124 966 1146 1276 1266 1046 906 919 953 1030 1000 852 566 464 416 352 254 134 38 0 0 0 0 0 0 0 0 0 0 0 0 0 0 3 42 119 128 520 740 575 194
807 1017 1100 1197 1042 887 779 712 736 817 840 804 730 685 564 522 552 435 338 122 39 25 9 0 0 0 0 0 0 0 0 0 0 0 0 0 0 3 0 2 309 549 215
782 801 785 737 703 727 798 627 649 613 504 484 487 337 304 283 254 256 223 169 66 65 33 22 23 0 0 0 0 0 0 0 0 0 0 0 0 0 0 0 0 80 109
700 718 547 432 483 445 334 476 362 304 302 266 267 175 118 373 441 306 28 102 111 93 59 28 1 0 0 0 0 0 0 0 0 0 0 0 0 2 10 11 370 359 356
466 236 224 225 193 115 5 154 188 74 39 340 421 499 505 718 795 583 321 75 82 8 0 0 0 0 9 0 0 0 0 0 0 0 0 0 0 0 18 35 62 296 427
52 2 45 128 122 35 20 31 5 16 184 582 775 785 865 804 945 965 1025 842 789 35 124 0 8 0 24 23 1 8 0 0 0 0 0 0 0 0 0 0 5 30 148
0 3 38 73 128 105 20 16 105 223 516 617 784 929 1073 1300 1129 1060 974 1005 833 210 101 39 28 52 9 0 0 0 0 0 0 0 0 0 0 0 0 0 0 0 0
0 18 127 159 103 146 265 357 429 578 673 888 902 1067 1237 1326 1292 1028 967 674 328 167 101 83 28 0 0 0 0 0 0 0 0 0 0 0 0 0 0 0 0 0 0
0 29 308 342 367 371 488 590 661 701 727 956 1047 1251 1134 951 551 356 241 202 128 18 0 0 0 0 0 0 0 0 0 0 0 0 0 0 0 0 0 0 0 0 0
39 101 381 501 586 587 375 131 90 82 65 136 260 287 470 499 339 212 161 93 49 8 3 3 0 0 2 0 0 0 0 0 0 0 0 0 0 0 0 0 0 0 0
63 257 408 419 434 193 146 80 10 20 5 10 57 75 56 45 41 69 37 46 49 36 0 0 0 0 0 0 0 0 0 0 0 0 0 0 0 0 0 0 0 0 0
171 459 514 501 238 111 80 54 19 4 16 11 22 30 64 45 25 0 0 0 0 0 0 0 0 0 0 0 0 0 0 0 0 0 0 0 0 0 0 0 0 0 0
538 642 619 477 96 172 77 11 0 3 37 23 16 0 0 0 0 0 0 0 0 0 0 0 0 0 0 0 0 0 0 0 0 0 0 0 0 0 0 0 0 0 0
644 586 665 306 174 53 0 0 7 0 0 0 0 0 0 0 0 0 0 0 0 0 0 0 0 0 0 0 0 0 0 0 28 15 7 0 0 0 0 0 0 0 0
725 687 654 499 285 440 190 22 0 0 0 0 0 0 0 0 0 0 0 0 0 0 0 0 0 0 0 0 1 0 0 0 0 26 27 20 12 3 1 3 5 2 0
859 763 601 597 545 135 0 0 0 0 0 0 0 0 0 0 0 0 0 0 0 0 0 0 0 0 0 0 4 6 0 0 3 0 15 25 25 16 15 15 14 16 12
97 69 29 67 29 1 0 0 0 0 11 0 0 0 0 0 0 0 0 0 0 0 0 0 0 0 1 0 0 7 35 40 0 0 11 6 18 15 16 19 26 34 39
0 0 0 0 0 0 0 0 0 0 0 0 0 0 0 0 0 0 0 0 0 0 0 2 3 12 11 23 31 41 59 50 60 41 33 34 34 52 53 46 38 54 58
0 0 0 0 0 0 0 0 0 0 0 0 0 0 0 0 0 0 0 0 5 24 32 41 45 46 62 69 76 68 46 35 37 38 125 88 75 33 47 37 52 32 55
CIN
-2 0 -1 -1 -2 -3 -9 -18 -16 -8 -2 0 0 0 0 0 -1 0 0 0 -1 -1 -4 -8 -16 -25 -41 -56 -67 -88 -110 -122 -113 -99 -59 -34 -35 -45 -26 -24 -37 -1 -8
0 0 -1 0 0 0 0 -5 0 -1 0 0 -1 0 0 0 0 0 0 0 0 0 -2 -5 -24 -49 -72 -92 -112 -121 -124 -158 -157 -154 -105 -54 -27 -32 -31 -18 -18 -2 -6
0 0 0 -2 -1 0 0 -1 0 -1 0 -7 -8 -3 -3 -7 -4 0 0 0 -3 -4 -23 -60 -114 -124 -122 -117 -188 -246 -226 0 -258 -183 -64 -1 0 -11 -19 -12 -9 -8 -10
-1 0 0 -5 -1 0 -1 0 0 0 0 0 -5 -14 -13 -12 -11 -9 0 0 -6 -14 -57 -97 -119 -130 -184 -223 0 0 0 0 0 -173 -6 0 0 -13 -9 -12 -7 -14 -17
0 0 0 -5 -1 0 -1 0 0 0 0 0 0 -5 -1 -2 0 0 0 0 -23 -70 -104 -140 -201 -61 0 0 0 0 0 0 0 -152 0 0 0 -6 -3 -13 0 -5 -18
0 0 -8 -2 -1 -1 0 0 0 0 -2 -3 0 0 -6 -25 -43 -25 -11 -11 -83 -130 -182 0 0 0 0 0 0 0 0 0 -7 0 -10 -4 0 -1 -3 -8 -13 -21 -15
0 0 0 -3 -1 0 0 0 0 -1 -4 0 0 -1 -35 -76 -84 -61 -48 -81 -152 -189 0 0 0 0 0 0 0 0 0 0 0 0 0 0 -1 -6 -1 -5 -14 -25 -36
-1 0 0 0 0 -1 0 -2 -8 -6 -2 -3 -1 -6 -61 -90 -83 -80 -97 -131 -180 0 0 0 0 0 0 0 0 0 0 0 0 0 0 0 -74 -30 -28 -4 -3 -10 -38
-3 0 0 0 -3 -4 -30 -22 -21 -14 -8 -10 -23 -47 -75 -79 -51 -61 -67 -128 -139 -156 -108 0 0 0 0 0 0 0 0 0 0 0 0 0 0 -9 0 -13 -11 -1 -15
-5 0 0 0 -8 -9 -2 -33 -27 -26 -56 -81 -97 -139 -144 -122 -114 -96 -95 -95 -113 -103 -108 -106 -93 0 0 0 0 0 0 0 0 0 0 0 0 0 0 0 0 -26 -18
-4 -8 -25 -55 -47 -39 -38 -27 -58 -100 -101 -135 -136 -171 -16 -18 -12 -28 -176 -122 -104 -105 -108 -122 -12 0 0 0 0 0 0 0 0 0 0 0 0 -7 -14 -13 -4 -5 -2
-57 -122 -140 -131 -121 -112 -256 -71 -62 -113 -124 -42 -33 -28 -5 -1 0 -5 -48 -128 -129 -67 0 0 0 0 -31 0 0 -4 0 0 0 0 0 0 0 0 -42 -50 -32 -5 0
-162 -154 -198 -161 -141 -180 -153 -125 -15 -113 -46 -14 -8 -2 -1 -1 0 0 0 0 0 -51 -3 0 -21 0 -35 -24 -5 -35 0 0 0 0 0 0 0 0 0 0 -14 -41 -11
0 -214 -158 -168 -118 -101 -133 -116 -42 -18 -7 -4 -1 -8 0 0 0 0 0 0 0 -2 -17 -25 -23 -41 -22 0 0 0 0 0 0 0 0 0 0 0 0 0 0 0 0
0 -99 -91 -89 -96 -76 -36 -22 -14 -8 -1 -2 -1 0 0 0 0 -1 -1 0 -8 -14 -16 -32 -33 0 0 0 0 0 0 0 0 0 0 0 0 0 0 0 0 0 0
0 -131 -63 -53 -42 -27 -15 -13 -2 -4 -2 0 0 0 -1 -12 -45 -41 -37 -21 -20 -41 0 0 0 0 0 0 0 0 0 0 0 0 0 0 0 0 0 0 0 0 0
-74 -83 -57 -27 -11 -15 -34 -55 -37 -22 -67 -47 -48 -67 -36 -26 -42 -42 -28 -7 -4 -9 0 -5 0 0 -4 0 0 -1 0 0 0 0 0 0 0 0 0 0 0 0 0
-62 -47 -49 -79 -54 -67 -31 -23 -14 -8 -10 -133 -143 -90 -103 -64 -49 -3 -30 -22 -9 -11 0 0 0 0 0 0 0 0 0 0 0 0 0 0 0 0 0 0 0 0 0
-58 -36 -56 -63 -63 -37 -6 -43 -2 -7 -32 -24 -15 -16 -7 -19 -22 0 0 0 0 0 0 0 0 0 0 0 0 0 0 0 0 0 0 0 0 0 0 0 0 0 0
-71 -63 -62 -65 -65 -29 -39 0 0 -16 -9 -11 -13 0 0 0 0 0 0 0 0 0 0 0 0 0 0 0 0 0 0 0 0 0 0 0 0 0 0 0 0 0 0
-96 -79 -30 -55 -31 -4 0 0 -25 0 0 0 0 0 0 0 0 0 0 0 0 0 0 0 0 0 0 0 0 0 0 0 0 0 0 0 0 0 0 0 0 0 0
-38 -28 -8 -1 -15 -1 -7 -10 0 0 0 0 0 0 0 0 0 0 0 0 0 0 0 0 0 0 0 0 0 0 0 0 0 0 0 0 0 0 0 0 0 0 0
-4 0 -1 0 0 -16 0 0 0 0 0 0 0 0 0 0 0 0 0 0 0 0 0 0 0 0 0 0 0 0 0 0 0 0 0 0 0 0 0 0 0 0 0
-105 -74 -57 -32 -45 -79 0 0 0 0 -1 0 0 0 0 0 0 0 0 0 0 0 0 0 0 0 0 0 0 0 0 0 0 0 0 0 0 0 0 0 0 0 0
0 0 0 0 0 0 0 0 0 0 0 0 0 0 0 0 0 0 0 0 0 0 0 0 0 0 0 0 0 0 0 0 0 0 0 0 0 0 0 0 0 0 0
0 0 0 0 0 0 0 0 0 0 0 0 0 0 0 0 0 0 0 0 0 0 0 0 0 0 0 0 0 0 0 0 0 0 0 0 0 0 0 0 0 -1 0
Wind_Speed
26 29 24 25 28 29 28 29 31 27 24 17 11 7 6 7 8 9 10 10 10 11 11 10 11 13 13 12 13 12 11 9 8 6 8 13 15 17 16 15 12 23 19
31 29 25 28 31 30 27 30 27 23 19 14 11 7 8 9 10 12 12 12 14 15 15 14 15 16 16 15 15 15 14 13 9 9 8 19 17 15 14 13 15 21 21
31 29 30 28 33 29 28 26 24 20 17 13 11 9 10 12 12 14 15 16 18 19 21 21 22 22 21 19 nan nan nan nan nan 10 7 16 21 14 11 10 11 16 21
34 27 27 29 30 27 26 23 17 16 14 12 11 13 14 15 15 17 19 21 22 24 24 25 27 26 nan nan nan nan nan nan nan nan 17 15 25 20 15 11 11 14 13
35 17 26 24 25 24 22 19 17 14 13 12 12 15 16 17 18 21 23 24 26 27 nan nan nan nan nan nan nan nan nan nan nan nan 23 23 21 25 21 18 17 16 15
18 16 21 20 22 20 22 19 15 12 13 14 15 17 18 19 22 25 26 27 29 nan nan nan nan nan nan nan nan nan nan nan nan nan 24 28 29 27 29 27 23 22 20
11 18 20 17 18 20 21 18 13 13 15 15 16 18 20 22 25 26 28 29 nan nan nan nan nan nan nan nan nan nan nan nan nan nan nan 25 29 25 28 27 26 25 24
8 14 21 19 18 19 20 15 13 13 14 16 19 22 23 25 27 29 30 31 nan nan nan nan nan nan nan nan nan nan nan nan nan nan nan nan nan 25 25 24 23 23 23
11 14 17 17 18 19 18 13 12 11 16 19 22 24 26 26 28 31 32 33 nan nan nan nan nan nan nan nan nan nan nan nan nan nan nan nan nan nan nan nan 25 24 25
9 14 15 14 16 12 11 12 12 15 19 23 26 26 26 29 32 32 32 32 nan nan nan nan nan nan nan nan nan nan nan nan nan nan nan nan nan nan nan nan nan nan 26
9 12 12 14 13 13 12 15 16 20 23 26 26 27 26 29 32 31 nan 30 30 nan nan nan nan nan nan nan nan nan nan nan nan nan nan nan nan nan nan nan 30 28 27
7 10 13 12 13 11 nan 18 20 nan nan 26 26 26 27 30 32 29 32 nan nan nan nan nan nan nan nan nan nan nan nan nan nan nan nan nan nan nan nan nan nan 28 27
nan nan nan 10 12 nan nan nan nan nan 25 27 28 27 32 32 32 29 30 28 28 nan 31 nan nan nan nan nan nan nan nan nan nan nan nan nan nan nan nan nan nan nan 28
nan nan nan nan 16 19 nan nan 24 25 25 26 30 30 32 33 33 32 28 26 26 30 33 nan nan nan nan nan nan nan nan nan nan nan nan nan nan nan nan nan nan nan nan
nan nan 14 16 18 21 22 24 27 26 28 29 30 33 33 34 37 40 41 30 24 32 35 nan nan nan nan nan nan nan nan nan nan nan nan nan nan nan nan nan nan nan nan
nan nan 15 17 19 23 26 28 30 32 34 33 33 34 32 34 37 32 33 33 36 nan nan nan nan nan nan nan nan nan nan nan nan nan nan nan nan nan nan nan nan nan nan
nan 17 20 22 25 29 33 35 nan nan nan 39 41 41 36 34 34 46 43 nan nan nan nan nan nan nan nan nan nan nan nan nan nan nan nan nan nan nan nan nan nan nan nan
nan 21 25 26 33 35 36 nan nan nan nan nan nan nan nan nan nan nan nan nan nan nan nan nan nan nan nan nan nan nan nan nan nan nan nan nan nan nan nan nan nan nan nan
19 25 28 31 35 37 nan nan nan nan nan nan nan nan nan nan nan nan nan nan nan nan nan nan nan nan nan nan nan nan nan nan nan nan nan nan nan nan nan nan nan nan nan
28 31 33 34 nan 38 nan nan nan nan nan nan nan nan nan nan nan nan nan nan nan nan nan nan nan nan nan nan nan nan nan nan nan nan nan nan nan nan nan nan nan nan nan
29 33 34 37 38 nan nan nan nan nan nan nan nan nan nan nan nan nan nan nan nan nan nan nan nan nan nan nan nan nan nan nan nan nan nan nan nan nan nan nan nan nan nan
32 34 37 39 37 39 43 nan nan nan nan nan nan nan nan nan nan nan nan nan nan nan nan nan nan nan nan nan nan nan nan nan nan nan nan nan nan nan nan nan nan nan nan
34 36 37 41 44 45 nan nan nan nan nan nan nan nan nan nan nan nan nan nan nan nan nan nan nan nan nan nan nan nan nan nan nan nan nan nan nan nan nan nan nan nan nan
nan nan nan nan nan nan nan nan nan nan nan nan nan nan nan nan nan nan nan nan nan nan nan nan nan nan nan nan nan nan nan nan nan nan nan nan nan nan nan nan nan nan nan
nan nan nan nan nan nan nan nan nan nan nan nan nan nan nan nan nan nan nan nan nan nan nan nan nan nan nan nan nan nan nan nan nan nan nan nan nan nan nan nan nan nan nan
nan nan nan nan nan nan nan nan nan nan nan nan nan nan nan nan nan nan nan nan nan nan nan nan nan nan nan nan nan nan nan nan nan nan 92 nan nan nan nan nan nan nan nan
Wind_Direction
277 290 297 303 304 305 303 298 296 295 288 277 276 282 284 289 301 306 309 307 309 301 293 288 286 276 269 262 264 269 275 283 297 310 308 298 283 280 270 258 212 257 253
276 290 292 298 306 305 302 298 295 288 273 265 266 280 287 295 297 298 299 304 296 292 289 288 285 282 276 271 268 268 273 274 280 292 333 338 299 281 275 267 249 256 258
267 278 298 295 304 304 301 297 298 280 267 266 270 277 282 282 288 298 304 299 298 301 304 304 296 290 285 281 nan nan nan nan nan 293 333 306 291 286 282 275 263 256 250
267 271 295 301 302 303 300 297 284 268 258 259 271 281 285 288 297 305 307 301 302 301 300 296 290 288 nan nan nan nan nan nan nan nan 299 283 294 276 265 258 269 256 235
258 276 291 300 301 299 293 283 264 250 246 256 270 276 282 290 298 299 296 299 300 298 nan nan nan nan nan nan nan nan nan nan nan nan 276 269 268 269 263 260 258 250 242
251 291 293 292 293 292 286 269 257 241 245 250 262 278 286 295 297 296 297 298 300 nan nan nan nan nan nan nan nan nan nan nan nan nan 278 287 272 265 266 266 267 265 254
276 277 300 282 281 285 273 256 238 239 247 258 273 280 288 290 289 291 294 297 nan nan nan nan nan nan nan nan nan nan nan nan nan nan nan 270 264 257 261 263 261 258 257
315 288 286 280 275 271 257 239 238 245 261 275 280 282 286 286 291 294 295 296 nan nan nan nan nan nan nan nan nan nan nan nan nan nan nan nan nan 249 252 255 258 259 258
321 282 282 287 278 258 240 239 249 264 268 270 273 277 283 287 291 291 290 293 nan nan nan nan nan nan nan nan nan nan nan nan nan nan nan nan nan nan nan nan 253 256 259
262 266 269 272 271 249 252 248 263 266 271 276 276 281 285 291 291 294 298 295 nan nan nan nan nan nan nan nan nan nan nan nan nan nan nan nan nan nan nan nan nan nan 254
247 254 258 257 239 237 256 264 274 269 269 275 286 287 301 293 297 302 nan 293 296 nan nan nan nan nan nan nan nan nan nan nan nan nan nan nan nan nan nan nan 248 250 253
270 268 254 236 241 256 nan 280 278 nan nan 289 293 295 292 287 282 277 284 nan nan nan nan nan nan nan nan nan nan nan nan nan nan nan nan nan nan nan nan nan nan 246 246
nan nan nan 251 266 nan nan nan nan nan 293 294 294 292 286 283 285 286 286 292 295 nan 305 nan nan nan nan nan nan nan nan nan nan nan nan nan nan nan nan nan nan nan 239
nan nan nan nan 272 269 nan nan 288 290 292 294 292 292 289 287 282 282 278 284 301 300 298 nan nan nan nan nan nan nan nan nan nan nan nan nan nan nan nan nan nan nan nan
nan nan 280 279 280 281 285 284 284 286 285 281 287 285 285 289 287 280 273 272 297 306 295 nan nan nan nan nan nan nan nan nan nan nan nan nan nan nan nan nan nan nan nan
nan nan 277 284 286 289 286 284 285 281 277 274 274 270 271 280 298 282 305 304 306 nan nan nan nan nan nan nan nan nan nan nan nan nan nan nan nan nan nan nan nan nan nan
nan 280 289 290 297 295 291 284 nan nan nan 270 270 275 288 280 302 315 316 nan nan nan nan nan nan nan nan nan nan nan nan nan nan nan nan nan nan nan nan nan nan nan nan
nan 297 301 295 292 284 282 nan nan nan nan nan nan nan nan nan nan nan nan nan nan nan nan nan nan nan nan nan nan nan nan nan nan nan nan nan nan nan nan nan nan nan nan
294 299 301 301 295 284 nan nan nan nan nan nan nan nan nan nan nan nan nan nan nan nan nan nan nan nan nan nan nan nan nan nan nan nan nan nan nan nan nan nan nan nan nan
293 300 303 299 nan 291 nan nan nan nan nan nan nan nan nan nan nan nan nan nan nan nan nan nan nan nan nan nan nan nan nan nan nan nan nan nan nan nan nan nan nan nan nan
298 300 303 302 295 nan nan nan nan nan nan nan nan nan nan nan nan nan nan nan nan nan nan nan nan nan nan nan nan nan nan nan nan nan nan nan nan nan nan nan nan nan nan
303 300 298 299 298 296 294 nan nan nan nan nan nan nan nan nan nan nan nan nan nan nan nan nan nan nan nan nan nan nan nan nan nan nan nan nan nan nan nan nan nan nan nan
302 301 302 301 301 297 nan nan nan nan nan nan nan nan nan nan nan nan nan nan nan nan nan nan nan nan nan nan nan nan nan nan nan nan nan nan nan nan nan nan nan nan nan
nan nan nan nan nan nan nan nan nan nan nan nan nan nan nan nan nan nan nan nan nan nan nan nan nan nan nan nan nan nan nan nan nan nan nan nan nan nan nan nan nan nan nan
nan nan nan nan nan nan nan nan nan nan nan nan nan nan nan nan nan nan nan nan nan nan nan nan nan nan nan nan nan nan nan nan nan nan nan nan nan nan nan nan nan nan nan
nan nan nan nan nan nan nan nan nan nan nan nan nan nan nan nan nan nan nan nan nan nan nan nan nan nan nan nan nan nan nan nan nan nan 300 nan nan nan nan nan nan nan nan